Simultaneous Nadir Overpasses (SNOs) Predictions

Prediction of SNOs near equator between NOAA-19 and NPP Satellite Orbit:

Table of predicted SNOs near equator for the next 14.0 days since TLE Epoch: 1/11/2013
Index Date (NOAA-19) Time (NOAA-19) NOAA-19 Lat,Lon Date (NPP) Time (NPP) NPP Lat,Lon Distance(km) Time Diff (sec)
1 01/17/2013 04:06:29 29.99, 137.03 01/17/2013 03:58:49 29.82, 136.07 93.82 460
2 01/17/2013 04:57:22 -29.96, -55.69 01/17/2013 04:49:29 -29.77, -56.58 88.94 473
3 01/17/2013 05:48:32 29.95, 111.52 01/17/2013 05:40:17 29.77, 110.71 80.19 495
4 01/17/2013 06:39:26 -29.97, -81.21 01/17/2013 06:30:59 -29.83, -81.97 75.28 507
5 01/17/2013 07:30:37 29.95, 86.00 01/17/2013 07:21:48 29.84, 85.32 66.57 529
6 01/17/2013 08:21:31 -29.98,-106.73 01/17/2013 08:12:29 -29.84,-107.35 61.61 542
7 01/17/2013 09:12:4
